CW6099 Weather Reports


Display with metric or nautical units.
time (UTC)temp
F
wind
direction
speed
MPH
gust
MPH
rain 1hr
in
rain 24hr
in
rain mn
in
humidity
%
barometer
mb
20260904112251 68 147 9.0 14.0 0.00 0.00 0.00 75 1012.5
20260904112204 68 155 10.0 14.0 0.00 0.00 0.00 75 1012.4
20260904111652 68 148 9.0 13.0 0.00 0.00 0.00 75 1012.5
20260904111248 68 171 8.0 11.0 0.00 0.00 0.00 75 1012.6
20260904111202 68 171 7.0 11.0 0.00 0.00 0.00 75 1012.5
20260904110649 68 150 9.0 11.0 0.00 0.00 0.00 75 1012.6
20260904110244 69 159 9.0 11.0 0.00 0.00 0.00 75 1012.6
20260904110157 69 147 8.0 11.0 0.00 0.00 0.00 75 1012.6
20260904105707 69 148 8.0 12.0 0.00 0.00 0.00 75 1012.7
20260904105322 69 140 8.0 11.0 0.00 0.00 0.00 74 1012.7
20260904105152 69 150 8.0 11.0 0.00 0.00 0.00 74 1012.6
20260904104645 69 149 8.0 11.0 0.00 0.00 0.00 74 1012.7
20260904104258 70 146 8.0 11.0 0.00 0.00 0.00 73 1012.7
20260904104214 70 158 8.0 11.0 0.00 0.00 0.00 73 1012.7
20260904103642 70 144 8.0 10.0 0.00 0.00 0.00 72 1012.7
20260904103313 70 178 8.0 10.0 0.00 0.00 0.00 72 1012.7
20260904103148 70 151 8.0 11.0 0.00 0.00 0.00 72 1012.7
20260904102718 70 153 8.0 12.0 0.00 0.00 0.00 72 1012.6
20260904102251 70 155 7.0 12.0 0.00 0.00 0.00 72 1012.6
20260904102145 70 196 8.0 12.0 0.00 0.00 0.00 72 1012.6
20260904101655 70 159 8.0 12.0 0.00 0.00 0.00 71 1012.6
20260904101251 70 141 8.0 12.0 0.00 0.00 0.00 71 1012.6
20260904101203 70 134 8.0 12.0 0.00 0.00 0.00 71 1012.6
20260904100652 71 155 8.0 12.0 0.00 0.00 0.00 70 1012.6
20260904100249 71 140 7.0 12.0 0.00 0.00 0.00 70 1012.6
20260904100201 71 142 8.0 12.0 0.00 0.00 0.00 70 1012.6
20260904095649 71 129 8.0 10.0 0.00 0.00 0.00 69 1012.6
20260904095246 71 170 7.0 10.0 0.00 0.00 0.00 69 1012.6
20260904095159 71 153 7.0 10.0 0.00 0.00 0.00 69 1012.6
20260904094654 72 155 7.0 10.0 0.00 0.00 0.00 68 1012.6
20260904094305 72 155 6.0 9.0 0.00 0.00 0.00 68 1012.6
20260904094200 72 127 6.0 9.0 0.00 0.00 0.00 68 1012.6
20260904093650 72 180 7.0 12.0 0.00 0.00 0.00 67 1012.6
20260904093246 72 177 7.0 12.0 0.00 0.00 0.00 67 1012.5
20260904093200 72 150 7.0 12.0 0.00 0.00 0.00 67 1012.4
20260904092649 72 175 9.0 12.0 0.00 0.00 0.00 67 1012.4
20260904092244 72 163 9.0 15.0 0.00 0.00 0.00 67 1012.3
20260904092216 72 146 9.0 15.0 0.00 0.00 0.00 67 1012.3
20260904091645 72 192 10.0 15.0 0.00 0.00 0.00 67 1012.3
20260904091259 72 169 10.0 15.0 0.00 0.00 0.00 67 1012.3
20260904091151 72 150 10.0 15.0 0.00 0.00 0.00 67 1012.3
20260904090642 72 161 9.0 13.0 0.00 0.00 0.00 67 1012.3
20260904090258 72 183 9.0 14.0 0.00 0.00 0.00 67 1012.3
20260904090151 72 144 9.0 14.0 0.00 0.00 0.00 67 1012.3
20260904085700 72 190 10.0 15.0 0.00 0.00 0.00 67 1012.3
20260904085316 72 148 9.0 15.0 0.00 0.00 0.00 67 1012.3
20260904085145 72 146 8.0 14.0 0.00 0.00 0.00 67 1012.3
20260904084700 72 140 9.0 15.0 0.00 0.00 0.00 67 1012.3
20260904084252 72 162 10.0 16.0 0.00 0.00 0.00 68 1012.3
20260904084209 72 164 9.0 16.0 0.00 0.00 0.00 67 1012.4
20260904083659 72 151 11.0 16.0 0.00 0.00 0.00 68 1012.4
20260904083255 72 151 9.0 12.0 0.00 0.00 0.00 67 1012.4
20260904083148 72 164 9.0 12.0 0.00 0.00 0.00 68 1012.4
20260904082656 72 136 9.0 14.0 0.00 0.00 0.00 67 1012.4
20260904082254 72 161 8.0 14.0 0.00 0.00 0.00 67 1012.4
20260904082147 72 150 9.0 14.0 0.00 0.00 0.00 67 1012.4
20260904081716 72 134 8.0 12.0 0.00 0.00 0.00 66 1012.5
20260904081310 72 150 9.0 13.0 0.00 0.00 0.00 66 1012.4
20260904081203 72 162 8.0 11.0 0.00 0.00 0.00 66 1012.4
20260904080652 73 149 8.0 12.0 0.00 0.00 0.00 66 1012.6
20260904080249 73 122 8.0 12.0 0.00 0.00 0.00 66 1012.6
20260904080141 73 146 9.0 13.0 0.00 0.00 0.00 65 1012.6
20260904075712 73 177 8.0 13.0 0.00 0.00 0.00 65 1012.7
20260904075248 73 172 8.0 14.0 0.00 0.00 0.00 65 1012.7
20260904075141 73 144 9.0 14.0 0.00 0.00 0.00 65 1012.7
20260904074711 73 154 10.0 15.0 0.00 0.00 0.00 65 1012.8
20260904074246 73 125 11.0 16.0 0.00 0.00 0.00 65 1012.8
20260904074204 73 132 11.0 16.0 0.00 0.00 0.00 65 1012.9
20260904073653 73 155 12.0 16.0 0.00 0.00 0.00 65 1013.0
20260904073305 73 144 11.0 15.0 0.00 0.00 0.00 65 1012.9
20260904073141 73 165 10.0 15.0 0.00 0.00 0.00 65 1013.0
20260904072651 72 149 11.0 15.0 0.00 0.00 0.00 66 1013.0
20260904072247 72 103 11.0 15.0 0.00 0.00 0.00 66 1012.8
20260904072200 72 157 10.0 15.0 0.00 0.00 0.00 66 1012.8
20260904071650 72 161 7.0 12.0 0.00 0.00 0.00 67 1012.7
20260904071247 72 144 7.0 10.0 0.00 0.00 0.00 68 1012.7
20260904071220 72 158 7.0 9.0 0.00 0.00 0.00 68 1012.7
20260904070649 71 150 6.0 10.0 0.00 0.00 0.00 68 1012.6
20260904070245 71 155 8.0 11.0 0.00 0.00 0.00 69 1012.6
20260904070219 71 137 7.0 11.0 0.00 0.00 0.00 69 1012.7
20260904065648 71 155 7.0 11.0 0.00 0.00 0.00 70 1012.8
20260904065244 72 145 8.0 10.0 0.00 0.00 0.00 70 1012.8
20260904065156 72 130 8.0 10.0 0.00 0.00 0.00 70 1012.8
20260904064646 72 138 4.0 8.0 0.00 0.00 0.00 70 1012.8
20260904064240 71 125 4.0 8.0 0.00 0.00 0.00 70 1012.8
20260904064214 71 155 4.0 8.0 0.00 0.00 0.00 71 1012.9
20260904063706 71 202 3.0 7.0 0.00 0.00 0.00 71 1012.8
20260904063316 71 194 3.0 6.0 0.00 0.00 0.00 71 1012.9
20260904063152 71 157 3.0 6.0 0.00 0.00 0.00 71 1012.9
20260904062702 71 153 3.0 6.0 0.00 0.00 0.00 72 1012.9
20260904062253 71 161 3.0 5.0 0.00 0.00 0.00 71 1012.9
20260904062150 71 151 3.0 6.0 0.00 0.00 0.00 71 1012.9
20260904061700 71 167 4.0 7.0 0.00 0.00 0.00 72 1013.0
20260904061256 71 138 3.0 7.0 0.00 0.00 0.00 72 1013.0
20260904061148 71 111 3.0 7.0 0.00 0.00 0.00 72 1013.0
20260904060718 71 138 3.0 6.0 0.00 0.00 0.00 72 1013.0
20260904060314 71 104 2.0 7.0 0.00 0.00 0.00 72 1013.0
20260904060207 71 140 3.0 7.0 0.00 0.00 0.00 72 1013.0
20260904055655 71 74 4.0 7.0 0.00 0.00 0.00 72 1013.0
20260904055253 71 92 3.0 7.0 0.00 0.00 0.00 72 1013.0
20260904055145 71 28 3.0 7.0 0.00 0.00 0.00 72 1013.0
20260904054655 71 68 4.0 8.0 0.00 0.00 0.00 71 1013.0
20260904054252 71 83 6.0 8.0 0.00 0.00 0.00 71 1013.0
20260904054144 71 82 6.0 8.0 0.00 0.00 0.00 71 1013.0
20260904053711 72 87 4.0 9.0 0.00 0.00 0.00 71 1013.0
20260904053244 72 65 5.0 9.0 0.00 0.00 0.00 71 1013.0
20260904053155 72 92 5.0 9.0 0.00 0.00 0.00 70 1013.0
20260904052649 72 88 3.0 10.0 0.00 0.00 0.00 70 1013.0
20260904052321 72 86 5.0 10.0 0.00 0.00 0.00 69 1012.9
20260904052156 72 79 4.0 10.0 0.00 0.00 0.00 69 1013.0
20260904051706 73 80 6.0 11.0 0.00 0.00 0.00 69 1012.7
20260904051257 73 88 9.0 11.0 0.00 0.00 0.00 68 1012.7
20260904051153 73 73 9.0 11.0 0.00 0.00 0.00 68 1012.7
20260904050643 73 116 8.0 10.0 0.00 0.00 0.00 68 1012.8
20260904050259 73 80 8.0 10.0 0.00 0.00 0.00 68 1012.7
20260904050152 73 84 8.0 10.0 0.00 0.00 0.00 68 1012.7
20260904045641 72 82 7.0 10.0 0.00 0.00 0.00 69 1012.8
20260904045258 72 92 7.0 10.0 0.00 0.00 0.00 69 1012.8
20260904045151 72 88 7.0 10.0 0.00 0.00 0.00 69 1012.9
20260904044701 71 109 3.0 11.0 0.00 0.00 0.00 70 1013.0
20260904044257 71 165 5.0 12.0 0.00 0.00 0.00 69 1013.2
20260904044208 71 136 4.0 12.0 0.00 0.00 0.00 69 1013.1
20260904043717 72 146 8.0 11.0 0.00 0.00 0.00 68 1013.3
20260904043253 72 155 9.0 11.0 0.00 0.00 0.00 67 1013.3
20260904043207 72 144 9.0 11.0 0.00 0.00 0.00 67 1013.2
20260904042656 73 148 3.0 8.0 0.00 0.00 0.00 66 1013.1
20260904042250 74 161 3.0 9.0 0.00 0.00 0.00 64 1013.1
20260904042146 74 44 3.0 9.0 0.00 0.00 0.00 64 1013.1
20260904041654 74 91 7.0 9.0 0.00 0.00 0.00 63 1013.1
20260904041250 74 81 6.0 9.0 0.00 0.00 0.00 62 1013.2
20260904041143 74 111 6.0 9.0 0.00 0.00 0.00 62 1013.1
20260904040650 74 106 7.0 9.0 0.00 0.00 0.00 61 1013.1
20260904040247 74 83 7.0 9.0 0.00 0.00 0.00 61 1013.1
20260904040220 74 83 7.0 9.0 0.00 0.00 0.00 61 1013.2
20260904035648 75 88 7.0 9.0 0.00 0.00 0.00 60 1013.1
20260904035243 75 90 7.0 9.0 0.00 0.00 0.00 60 1013.1
20260904035156 75 72 7.0 9.0 0.00 0.00 0.00 60 1013.0
20260904034646 75 89 6.0 10.0 0.00 0.00 0.00 60 1013.0
20260904034243 75 72 7.0 11.0 0.00 0.00 0.00 59 1012.9
20260904034156 75 80 7.0 11.0 0.00 0.00 0.00 59 1012.9
20260904033644 76 94 7.0 12.0 0.00 0.00 0.00 59 1012.9
20260904033241 76 88 8.0 13.0 0.00 0.00 0.00 58 1012.8
20260904033154 76 78 9.0 14.0 0.00 0.00 0.00 58 1012.9
20260904032709 76 71 9.0 14.0 0.00 0.00 0.00 58 1012.8
20260904032300 76 76 9.0 12.0 0.00 0.00 0.00 58 1012.7
20260904032157 76 88 10.0 12.0 0.00 0.00 0.00 58 1012.8
20260904031649 76 69 9.0 12.0 0.00 0.00 0.00 58 1012.7
20260904031245 75 68 9.0 11.0 0.00 0.00 0.00 59 1012.7
20260904031158 75 81 9.0 11.0 0.00 0.00 0.00 59 1012.6
20260904030709 75 86 8.0 11.0 0.00 0.00 0.00 59 1012.7
20260904030304 76 65 7.0 12.0 0.00 0.00 0.00 58 1012.7
20260904030154 76 70 8.0 12.0 0.00 0.00 0.00 58 1012.7
20260904025644 76 61 10.0 12.0 0.00 0.00 0.00 54 1012.7
20260904025258 77 90 9.0 10.0 0.00 0.00 0.00 55 1012.6
20260904025151 77 92 8.0 10.0 0.00 0.00 0.00 55 1012.5
20260904024700 77 101 7.0 10.0 0.00 0.00 0.00 55 1012.4
20260904024317 76 78 7.0 10.0 0.00 0.00 0.00 55 1012.4
20260904024148 77 127 8.0 10.0 0.00 0.00 0.00 55 1012.4
20260904023658 77 70 4.0 10.0 0.00 0.00 0.00 56 1012.3
20260904023316 77 66 7.0 10.0 0.00 0.00 0.00 56 1012.3
20260904023148 77 80 7.0 10.0 0.00 0.00 0.00 56 1012.3
20260904022700 77 92 5.0 9.0 0.00 0.00 0.00 57 1012.3
20260904022253 77 116 5.0 8.0 0.00 0.00 0.00 57 1012.2
20260904022150 77 169 4.0 9.0 0.00 0.00 0.00 57 1012.2
20260904021701 77 82 3.0 9.0 0.00 0.00 0.00 57 1012.1
20260904021257 77 86 7.0 9.0 0.00 0.00 0.00 56 1012.1
20260904021150 77 61 6.0 9.0 0.00 0.00 0.00 56 1012.0
20260904020701 78 96 3.0 7.0 0.00 0.00 0.00 57 1012.0
20260904020257 78 106 4.0 9.0 0.00 0.00 0.00 56 1012.0
20260904020149 78 61 4.0 9.0 0.00 0.00 0.00 56 1011.9
20260904015719 79 100 6.0 9.0 0.00 0.00 0.00 55 1011.8
20260904015254 79 86 7.0 9.0 0.00 0.00 0.00 54 1011.7
20260904015148 79 86 7.0 9.0 0.00 0.00 0.00 54 1011.7
20260904014716 79 63 7.0 9.0 0.00 0.00 0.00 54 1011.7
20260904014252 80 95 7.0 10.0 0.00 0.00 0.00 53 1011.6
20260904014206 80 98 6.0 10.0 0.00 0.00 0.00 53 1011.5
20260904013714 82 60 6.0 10.0 0.00 0.00 0.00 51 1011.5
20260904013248 83 85 6.0 10.0 0.00 0.00 0.00 49 1011.4
20260904013221 83 95 7.0 10.0 0.00 0.00 0.00 48 1011.4
20260904012653 83 80 8.0 10.0 0.00 0.00 0.00 48 1011.4
20260904012246 83 84 8.0 10.0 0.00 0.00 0.00 48 1011.3
20260904012204 83 88 8.0 10.0 0.00 0.00 0.00 48 1011.3
20260904011651 84 81 7.0 10.0 0.00 0.00 0.00 47 1011.3
20260904011249 84 56 8.0 10.0 0.00 0.00 0.00 47 1011.2
20260904011202 84 77 8.0 10.0 0.00 0.00 0.00 47 1011.2
20260904010650 85 84 8.0 10.0 0.00 0.00 0.00 47 1011.2
20260904010246 85 71 7.0 10.0 0.00 0.00 0.00 47 1011.2
20260904010159 86 81 7.0 10.0 0.00 0.00 0.00 46 1011.2
20260904005650 86 85 8.0 9.0 0.00 0.00 0.00 47 1011.2
20260904005246 87 78 6.0 10.0 0.00 0.00 0.00 46 1011.3
20260904005159 87 54 6.0 10.0 0.00 0.00 0.00 45 1011.2
20260904004710 88 71 5.0 10.0 0.00 0.00 0.00 43 1011.3
20260904004245 89 62 7.0 10.0 0.00 0.00 0.00 42 1011.2
20260904004217 89 55 7.0 10.0 0.00 0.00 0.00 42 1011.2
20260904003647 90 50 8.0 10.0 0.00 0.00 0.00 40 1011.2
20260904003244 91 63 6.0 9.0 0.00 0.00 0.00 39 1011.2
20260904003201 92 62 6.0 9.0 0.00 0.00 0.00 39 1011.2
20260904002650 93 53 4.0 6.0 0.00 0.00 0.00 36 1011.2
20260904002248 93 58 3.0 4.0 0.00 0.00 0.00 34 1011.1
20260904002200 93 53 3.0 4.0 0.00 0.00 0.00 33 1011.2
20260904001651 94 33 1.0 3.0 0.00 0.00 0.00 30 1011.2
20260904001306 94 23 1.0 3.0 0.00 0.00 0.00 31 1011.2
20260904001156 94 23 1.0 3.0 0.00 0.00 0.00 30 1011.1
20260904000645 95 355 1.0 4.0 0.00 0.00 0.00 30 1011.1
20260904000320 95 355 2.0 5.0 0.00 0.00 0.00 28 1011.1
20260904000153 95 325 2.0 6.0 0.00 0.00 0.00 30 1011.2
20260903235704 95 327 3.0 6.0 0.00 0.00 0.00 30 1011.1
20260903235257 95 312 4.0 5.0 0.00 0.00 0.00 29 1011.2
20260903235151 95 302 4.0 5.0 0.00 0.00 0.00 30 1011.2
20260903234700 95 326 4.0 8.0 0.00 0.00 0.00 29 1011.2
20260903234256 95 309 3.0 8.0 0.00 0.00 0.00 30 1011.2
20260903234153 95 311 3.0 8.0 0.00 0.00 0.00 30 1011.2
20260903233642 95 298 4.0 6.0 0.00 0.00 0.00 31 1011.1
20260903233314 96 331 4.0 6.0 0.00 0.00 0.00 30 1011.2
20260903233210 96 305 4.0 6.0 0.00 0.00 0.00 30 1011.2
20260903232659 96 292 5.0 8.0 0.00 0.00 0.00 30 1011.2
20260903232255 96 329 4.0 8.0 0.00 0.00 0.00 31 1011.3
20260903232208 97 333 4.0 8.0 0.00 0.00 0.00 29 1011.3
20260903231655 97 306 5.0 9.0 0.00 0.00 0.00 27 1011.2
20260903231312 98 314 6.0 9.0 0.00 0.00 0.00 26 1011.3
20260903231144 98 327 5.0 9.0 0.00 0.00 0.00 28 1011.3
20260903230653 98 317 6.0 13.0 0.00 0.00 0.00 26 1011.3
20260903230249 98 317 7.0 13.0 0.00 0.00 0.00 28 1011.3
20260903230142 98 253 6.0 9.0 0.00 0.00 0.00 28 1011.3
20260903225652 98 298 4.0 9.0 0.00 0.00 0.00 28 1011.4
20260903225308 98 229 6.0 9.0 0.00 0.00 0.00 28 1011.4
20260903225159 98 257 5.0 9.0 0.00 0.00 0.00 27 1011.4
20260903224649 98 226 6.0 9.0 0.00 0.00 0.00 28 1011.3
20260903224302 99 286 5.0 9.0 0.00 0.00 0.00 27 1011.4
20260903224154 99 275 6.0 9.0 0.00 0.00 0.00 27 1011.3
20260903223644 99 251 6.0 9.0 0.00 0.00 0.00 27 1011.4
20260903223301 98 288 5.0 11.0 0.00 0.00 0.00 27 1011.4
20260903223157 98 235 5.0 11.0 0.00 0.00 0.00 28 1011.4
20260903222648 98 296 7.0 12.0 0.00 0.00 0.00 27 1011.5
20260903222244 98 311 7.0 12.0 0.00 0.00 0.00 27 1011.5
20260903222157 98 265 7.0 12.0 0.00 0.00 0.00 27 1011.5
20260903221647 99 278 8.0 12.0 0.00 0.00 0.00 27 1011.6
20260903221243 99 256 6.0 14.0 0.00 0.00 0.00 28 1011.6
20260903221217 99 241 6.0 14.0 0.00 0.00 0.00 27 1011.6
20260903220706 99 237 9.0 14.0 0.00 0.00 0.00 26 1011.8
20260903220301 99 260 3.0 12.0 0.00 0.00 0.00 28 1011.7
20260903220154 99 315 3.0 12.0 0.00 0.00 0.00 28 1011.8
20260903215704 99 245 5.0 12.0 0.00 0.00 0.00 29 1011.8
20260903215300 99 165 6.0 10.0 0.00 0.00 0.00 25 1011.9
20260903215213 99 277 6.0 10.0 0.00 0.00 0.00 30 1011.9
20260903214642 99 291 6.0 10.0 0.00 0.00 0.00 28 1011.9
20260903214300 99 266 1.0 7.0 0.00 0.00 0.00 28 1011.9
20260903214212 99 219 1.0 7.0 0.00 0.00 0.00 29 1011.9
20260903213659 99 239 4.0 9.0 0.00 0.00 0.00 29 1011.9
20260903213256 99 329 3.0 9.0 0.00 0.00 0.00 30 1011.9
20260903213149 99 323 5.0 9.0 0.00 0.00 0.00 29 1011.9
20260903212642 99 284 5.0 12.0 0.00 0.00 0.00 31 1011.9
20260903212255 99 332 4.0 12.0 0.00 0.00 0.00 31 1011.8
20260903212150 98 253 7.0 12.0 0.00 0.00 0.00 31 1011.9
20260903211700 98 251 3.0 10.0 0.00 0.00 0.00 33 1012.0
20260903211257 98 300 6.0 10.0 0.00 0.00 0.00 34 1012.0
20260903211150 98 284 6.0 10.0 0.00 0.00 0.00 33 1012.0
20260903210700 97 303 4.0 9.0 0.00 0.00 0.00 32 1012.1
20260903210256 97 178 4.0 10.0 0.00 0.00 0.00 30 1012.1
20260903210149 97 202 4.0 10.0 0.00 0.00 0.00 29 1012.1
20260903205658 97 279 3.0 9.0 0.00 0.00 0.00 29 1012.1
20260903205254 97 211 4.0 10.0 0.00 0.00 0.00 29 1012.2
20260903205147 97 207 4.0 10.0 0.00 0.00 0.00 29 1012.3
20260903204657 97 223 5.0 10.0 0.00 0.00 0.00 28 1012.3
20260903204313 98 236 4.0 9.0 0.00 0.00 0.00 30 1012.4
20260903204149 98 5 3.0 9.0 0.00 0.00 0.00 30 1012.3
20260903203659 97 332 4.0 8.0 0.00 0.00 0.00 28 1012.4
20260903203254 97 269 3.0 8.0 0.00 0.00 0.00 31 1012.4
20260903203148 98 342 3.0 8.0 0.00 0.00 0.00 29 1012.4
20260903202657 98 288 5.0 8.0 0.00 0.00 0.00 31 1012.4
20260903202254 98 302 6.0 8.0 0.00 0.00 0.00 31 1012.5
20260903202147 98 289 6.0 8.0 0.00 0.00 0.00 29 1012.5
20260903201657 97 223 5.0 11.0 0.00 0.00 0.00 30 1012.5
20260903201254 97 234 8.0 11.0 0.00 0.00 0.00 30 1012.6
20260903201147 97 246 6.0 11.0 0.00 0.00 0.00 31 1012.6
20260903200656 97 205 4.0 10.0 0.00 0.00 0.00 28 1012.6
20260903200251 97 275 5.0 9.0 0.00 0.00 0.00 30 1012.6
20260903200143 97 317 3.0 9.0 0.00 0.00 0.00 34 1012.6
20260903195657 97 303 6.0 11.0 0.00 0.00 0.00 30 1012.6
20260903195249 97 276 6.0 11.0 0.00 0.00 0.00 29 1012.6
20260903195146 97 296 8.0 13.0 0.00 0.00 0.00 28 1012.6
20260903194717 97 292 4.0 13.0 0.00 0.00 0.00 30 1012.6
20260903194252 97 325 6.0 12.0 0.00 0.00 0.00 32 1012.6
20260903194145 97 293 2.0 10.0 0.00 0.00 0.00 33 1012.7
20260903193655 97 251 6.0 15.0 0.00 0.00 0.00 30 1012.7
20260903193252 97 252 7.0 15.0 0.00 0.00 0.00 30 1012.7
20260903193145 97 203 8.0 15.0 0.00 0.00 0.00 30 1012.7
20260903192654 97 252 10.0 14.0 0.00 0.00 0.00 32 1012.7
20260903192250 97 319 8.0 13.0 0.00 0.00 0.00 32 1012.8
20260903192143 97 312 8.0 13.0 0.00 0.00 0.00 33 1012.8
20260903191653 96 306 8.0 17.0 0.00 0.00 0.00 30 1012.8
20260903191250 96 319 7.0 17.0 0.00 0.00 0.00 31 1012.8
20260903191147 96 275 10.0 17.0 0.00 0.00 0.00 29 1012.8
20260903190656 96 310 7.0 15.0 0.00 0.00 0.00 34 1012.8
20260903190252 96 309 10.0 15.0 0.00 0.00 0.00 30 1012.8
20260903190144 96 325 6.0 14.0 0.00 0.00 0.00 30 1012.9
20260903185714 96 319 8.0 14.0 0.00 0.00 0.00 35 1012.9
20260903185250 96 355 8.0 14.0 0.00 0.00 0.00 35 1012.9
20260903185144 96 307 9.0 15.0 0.00 0.00 0.00 32 1012.9
20260903184654 95 337 8.0 15.0 0.00 0.00 0.00 31 1012.9
20260903184309 95 271 9.0 17.0 0.00 0.00 0.00 29 1013.0
20260903184221 95 309 9.0 17.0 0.00 0.00 0.00 31 1013.0
20260903183647 95 279 9.0 17.0 0.00 0.00 0.00 32 1013.0
20260903183303 95 288 9.0 15.0 0.00 0.00 0.00 31 1013.1
20260903183155 95 314 9.0 15.0 0.00 0.00 0.00 30 1013.1
20260903182704 95 325 10.0 17.0 0.00 0.00 0.00 33 1013.1
20260903182257 95 333 12.0 17.0 0.00 0.00 0.00 35 1013.2
20260903182209 95 333 13.0 17.0 0.00 0.00 0.00 32 1013.2
20260903181658 95 296 10.0 15.0 0.00 0.00 0.00 34 1013.2
20260903181253 95 314 11.0 16.0 0.00 0.00 0.00 32 1013.3
20260903181145 95 323 10.0 16.0 0.00 0.00 0.00 34 1013.3
20260903180657 95 293 9.0 16.0 0.00 0.00 0.00 34 1013.3
20260903180246 95 314 9.0 15.0 0.00 0.00 0.00 35 1013.3
20260903180143 95 292 9.0 15.0 0.00 0.00 0.00 35 1013.4
20260903175654 94 301 11.0 15.0 0.00 0.00 0.00 35 1013.4
20260903175250 94 270 8.0 15.0 0.00 0.00 0.00 39 1013.5
20260903175143 94 319 9.0 17.0 0.00 0.00 0.00 39 1013.5
20260903174653 94 293 9.0 17.0 0.00 0.00 0.00 39 1013.6
20260903174250 93 309 12.0 16.0 0.00 0.00 0.00 43 1013.6
20260903174142 93 313 9.0 16.0 0.00 0.00 0.00 43 1013.6
20260903173713 93 313 9.0 16.0 0.00 0.00 0.00 36 1013.7
20260903173249 92 337 8.0 13.0 0.00 0.00 0.00 39 1013.7
20260903173143 92 292 8.0 13.0 0.00 0.00 0.00 39 1013.7
20260903172654 92 328 7.0 13.0 0.00 0.00 0.00 44 1013.8
20260903172250 92 248 8.0 14.0 0.00 0.00 0.00 42 1013.7
20260903172201 92 238 7.0 14.0 0.00 0.00 0.00 42 1013.8
20260903171709 91 231 6.0 14.0 0.00 0.00 0.00 42 1013.7
20260903171245 91 219 7.0 13.0 0.00 0.00 0.00 46 1013.8
20260903171202 91 317 7.0 13.0 0.00 0.00 0.00 46 1013.8
20260903170711 90 253 7.0 14.0 0.00 0.00 0.00 43 1013.9
20260903170246 90 265 9.0 14.0 0.00 0.00 0.00 43 1013.9
20260903170217 90 300 9.0 14.0 0.00 0.00 0.00 43 1013.9
20260903165646 89 295 8.0 14.0 0.00 0.00 0.00 42 1013.8
20260903165243 89 296 7.0 14.0 0.00 0.00 0.00 46 1013.8
20260903165157 89 248 8.0 14.0 0.00 0.00 0.00 44 1013.8
20260903164646 89 257 7.0 14.0 0.00 0.00 0.00 45 1013.8
20260903164242 88 338 6.0 12.0 0.00 0.00 0.00 45 1013.8
20260903164156 88 274 5.0 12.0 0.00 0.00 0.00 47 1013.8
20260903163705 88 309 7.0 12.0 0.00 0.00 0.00 46 1013.8
20260903163259 88 296 7.0 12.0 0.00 0.00 0.00 47 1013.8
20260903163154 88 288 7.0 12.0 0.00 0.00 0.00 45 1013.8
20260903162643 87 288 6.0 11.0 0.00 0.00 0.00 47 1013.7
20260903162300 87 310 7.0 12.0 0.00 0.00 0.00 49 1013.6
20260903162153 87 299 8.0 12.0 0.00 0.00 0.00 48 1013.5
20260903161706 86 293 8.0 12.0 0.00 0.00 0.00 48 1013.5
20260903161258 85 299 6.0 12.0 0.00 0.00 0.00 53 1013.5
20260903161154 85 288 7.0 12.0 0.00 0.00 0.00 52 1013.6
20260903160704 85 338 8.0 12.0 0.00 0.00 0.00 53 1013.6
20260903160315 84 284 6.0 12.0 0.00 0.00 0.00 51 1013.6
20260903160151 84 257 7.0 12.0 0.00 0.00 0.00 52 1013.5
20260903155658 84 280 7.0 12.0 0.00 0.00 0.00 53 1013.5
20260903155254 83 290 8.0 12.0 0.00 0.00 0.00 53 1013.6
20260903155148 83 272 8.0 12.0 0.00 0.00 0.00 51 1013.6
20260903154653 83 290 7.0 11.0 0.00 0.00 0.00 56 1013.5
20260903154308 82 267 6.0 11.0 0.00 0.00 0.00 54 1013.6
20260903154200 82 275 6.0 11.0 0.00 0.00 0.00 54 1013.6
20260903153650 82 285 5.0 11.0 0.00 0.00 0.00 54 1013.6
20260903153247 81 277 6.0 10.0 0.00 0.00 0.00 58 1013.6
20260903153159 81 311 7.0 10.0 0.00 0.00 0.00 58 1013.5
20260903152647 80 290 7.0 12.0 0.00 0.00 0.00 57 1013.5
20260903152244 80 214 8.0 12.0 0.00 0.00 0.00 58 1013.4
20260903152157 80 280 7.0 12.0 0.00 0.00 0.00 59 1013.4
20260903151650 79 267 7.0 12.0 0.00 0.00 0.00 58 1013.4
20260903151247 78 295 3.0 11.0 0.00 0.00 0.00 59 1013.3
20260903151220 78 319 4.0 12.0 0.00 0.00 0.00 58 1013.3
20260903150649 78 255 6.0 13.0 0.00 0.00 0.00 60 1013.3
20260903150246 77 311 8.0 13.0 0.00 0.00 0.00 61 1013.2
20260903150219 77 322 9.0 13.0 0.00 0.00 0.00 60 1013.3
20260903145707 76 306 9.0 13.0 0.00 0.00 0.00 63 1013.3
20260903145322 76 273 8.0 13.0 0.00 0.00 0.00 61 1013.2
20260903145154 76 275 8.0 13.0 0.00 0.00 0.00 61 1013.2
20260903144723 75 307 6.0 14.0 0.00 0.00 0.00 61 1013.2
20260903144318 75 313 9.0 14.0 0.00 0.00 0.00 64 1013.2
20260903144150 75 309 9.0 14.0 0.00 0.00 0.00 64 1013.2
20260903143659 74 289 5.0 13.0 0.00 0.00 0.00 62 1013.2
20260903143255 74 285 8.0 13.0 0.00 0.00 0.00 62 1013.3
20260903143207 74 278 8.0 13.0 0.00 0.00 0.00 62 1013.3
20260903142716 73 266 7.0 11.0 0.00 0.00 0.00 65 1013.3
20260903142251 72 265 6.0 11.0 0.00 0.00 0.00 67 1013.3
20260903142202 72 250 6.0 11.0 0.00 0.00 0.00 67 1013.3
20260903141652 72 264 7.0 13.0 0.00 0.00 0.00 69 1013.3
20260903141247 71 256 5.0 13.0 0.00 0.00 0.00 71 1013.2
20260903141158 71 260 6.0 13.0 0.00 0.00 0.00 72 1013.2
20260903140647 70 244 6.0 10.0 0.00 0.00 0.00 73 1013.1
20260903140300 70 261 6.0 10.0 0.00 0.00 0.00 73 1013.1
20260903140157 70 243 6.0 10.0 0.00 0.00 0.00 74 1013.1
20260903135707 69 248 6.0 11.0 0.00 0.00 0.00 76 1013.0
20260903135259 69 257 6.0 11.0 0.00 0.00 0.00 76 1013.0
20260903135211 69 242 7.0 11.0 0.00 0.00 0.00 76 1013.0
20260903134659 68 267 7.0 11.0 0.00 0.00 0.00 78 1012.9
20260903134253 68 261 7.0 9.0 0.00 0.00 0.00 79 1012.9
20260903134206 68 267 6.0 9.0 0.00 0.00 0.00 79 1012.9
20260903133655 67 257 5.0 11.0 0.00 0.00 0.00 80 1013.0
20260903133252 67 246 6.0 11.0 0.00 0.00 0.00 81 1013.0
20260903133206 66 248 6.0 12.0 0.00 0.00 0.00 81 1013.0
20260903132654 66 262 7.0 14.0 0.00 0.00 0.00 82 1012.9
20260903132250 65 214 9.0 14.0 0.00 0.00 0.00 83 1012.8
20260903132143 65 236 9.0 14.0 0.00 0.00 0.00 83 1012.8
20260903131655 65 221 8.0 12.0 0.00 0.00 0.00 84 1012.8
20260903131251 65 227 9.0 13.0 0.00 0.00 0.00 85 1012.8
20260903131144 65 214 9.0 13.0 0.00 0.00 0.00 85 1012.7
20260903130655 64 247 9.0 11.0 0.00 0.00 0.00 85 1012.6
20260903130251 64 234 8.0 13.0 0.00 0.00 0.00 85 1012.6
20260903130208 64 234 8.0 13.0 0.00 0.00 0.00 85 1012.6
20260903125658 64 248 9.0 14.0 0.00 0.00 0.00 85 1012.6
20260903125254 64 248 10.0 14.0 0.00 0.00 0.00 85 1012.5
20260903125146 64 234 9.0 14.0 0.00 0.00 0.00 85 1012.4
20260903124657 64 237 9.0 13.0 0.00 0.00 0.00 84 1012.4
20260903124253 64 188 9.0 14.0 0.00 0.00 0.00 84 1012.4
20260903124144 64 233 9.0 14.0 0.00 0.00 0.00 84 1012.4
20260903123714 64 229 10.0 12.0 0.00 0.00 0.00 83 1012.4
20260903123250 64 213 10.0 12.0 0.00 0.00 0.00 83 1012.2
20260903123223 64 198 9.0 12.0 0.00 0.00 0.00 83 1012.3
20260903122650 64 201 9.0 12.0 0.00 0.00 0.00 83 1012.1
20260903122247 64 218 8.0 11.0 0.00 0.00 0.00 82 1012.1
20260903122159 64 211 8.0 11.0 0.00 0.00 0.00 82 1012.2
20260903121649 65 230 9.0 12.0 0.00 0.00 0.00 81 1012.1
20260903121243 65 210 9.0 12.0 0.00 0.00 0.00 80 1011.9
20260903121216 65 206 8.0 10.0 0.00 0.00 0.00 80 1012.0
20260903120648 66 192 8.0 10.0 0.00 0.00 0.00 80 1011.9
20260903120301 66 221 8.0 10.0 0.00 0.00 0.00 79 1011.8
20260903120158 66 202 8.0 12.0 0.00 0.00 0.00 79 1011.8
20260903115648 66 194 8.0 12.0 0.00 0.00 0.00 78 1011.9
20260903115306 67 203 9.0 13.0 0.00 0.00 0.00 78 1011.8
20260903115156 67 192 9.0 13.0 0.00 0.00 0.00 78 1011.8
20260903114646 67 180 9.0 13.0 0.00 0.00 0.00 77 1011.9
20260903114243 67 194 10.0 13.0 0.00 0.00 0.00 77 1011.9
20260903114156 67 184 10.0 14.0 0.00 0.00 0.00 77 1011.8
20260903113706 67 170 10.0 14.0 0.00 0.00 0.00 77 1011.8
20260903113321 67 221 10.0 14.0 0.00 0.00 0.00 77 1011.8
20260903113153 67 195 10.0 13.0 0.00 0.00 0.00 77 1011.8
20260903112702 67 183 10.0 14.0 0.00 0.00 0.00 77 1011.8